[[{"header":{"parameterUnit":"m.s-1","parameterCategory":1,"la1":30.2991,"la2":30.254,"lo1":-89.0895,"lo2":-89.0444,"dy":0.0017,"dx":0.0017,"nx":28,"ny":28,"refTime":"2024-07-16T03:00:00:Z","depth":0,"parameterNumber":2,"parameterNumberName":"U-component_of_WINDS"},"data":[0,0,0,0,0,0,0,0,0,0,0,0,0,0,0,0,0,0,0,0,0,0,0,0,0,0,0,0,0,0,0,0,0,0,0,0,0,0,0,0,0,0,0,0,0,0,0,0,0,0,0,0,0,0,0,0,0,0,1.6734,1.6735,0,1.6818,1.6819,1.682,1.685,1.6849,1.6849,1.6849,1.6936,1.6939,1.6942,0,0,0,0,0,0,0,0,0,0,0,0,0,1.66,1.6602,1.6734,1.6735,1.6736,1.6818,1.6819,1.682,1.685,1.6849,1.6849,1.6849,1.6936,1.6939,1.6942,0,0,0,0,0,0,0,0,0,0,0,0,0,1.6668,1.6603,1.6733,1.676,1.6764,1.6818,1.6819,1.6821,1.685,1.6849,1.6849,1.6848,1.6935,1.6938,1.6942,1.6976,0,0,1.6954,1.6956,0,0,0,0,0,0,0,0,1.6664,1.6673,1.6755,1.6759,1.6762,1.6823,1.6804,1.6873,1.685,1.6817,1.6849,1.6848,1.6899,1.6906,1.6923,1.698,1.6984,1.6955,1.6957,1.6959,1.696,0,0,0,0,0,0,0,1.666,1.667,1.6767,1.6757,1.6761,1.6769,1.6778,1.6817,1.686,1.682,1.6822,1.6832,1.6901,1.6919,1.6925,1.6985,1.6955,1.6958,1.696,1.6962,1.7076,1.7077,0,0,0,0,0,0,1.665,1.6666,1.6764,1.677,1.6711,1.6772,1.6782,1.6804,1.6859,1.6867,1.6832,1.6833,1.6912,1.6921,1.6928,1.6973,1.6959,1.6962,1.6965,1.7076,1.7076,1.7077,0,0,0,0,0,0,1.6647,1.6659,1.6761,1.6718,1.6732,1.6774,1.6799,1.6806,1.6824,1.6869,1.6877,1.6843,1.6912,1.6923,1.6964,1.6976,1.6964,1.6968,1.7075,1.7076,1.7077,1.7061,0,0,0,0,0,0,1.6643,1.6657,1.667,1.6718,1.6734,1.6795,1.68,1.6808,1.6831,1.6832,1.6881,1.6888,1.6913,1.6958,1.6968,1.6981,1.6971,1.7074,1.7075,1.7076,1.706,1.7061,1.7062,0,0,0,0,0,1.6638,1.6662,1.6671,1.6682,1.6751,1.6795,1.6805,1.6832,1.6831,1.6845,1.6874,1.6887,1.6973,1.6962,1.6974,1.6988,1.7073,1.7075,1.7076,1.706,1.7061,1.7062,0,0,0,0,0,0,1.6615,1.6669,1.6679,1.6719,1.6752,1.68,1.6818,1.6832,1.6866,1.6867,1.69,1.691,1.695,1.6973,1.696,1.7025,1.7024,1.7028,1.7008,1.7009,1.7009,1.7003,1.6974,0,0,0,0,0,1.6614,1.6645,1.6691,1.6722,1.6738,1.6775,1.6796,1.6814,1.685,1.6865,1.6897,1.6931,1.6967,1.6989,1.7024,1.7064,1.7075,1.708,1.708,1.708,1.7084,1.7108,1.711,1.7082,1.7082,1.7082,0,0,1.6613,1.6647,1.6664,1.6718,1.6746,1.6779,1.6787,1.6821,1.6845,1.687,1.6911,1.6936,1.6977,1.7018,1.7038,1.7039,1.7094,1.7082,1.7082,1.7085,1.711,1.7112,1.7115,1.7083,1.7083,1.7083,0,0,1.6628,1.6656,1.6686,1.6714,1.6756,1.6781,1.6788,1.6834,1.6851,1.6893,1.6913,1.6943,1.7002,1.7031,1.7053,1.708,1.7094,1.7091,1.7094,1.7117,1.712,1.7122,1.7132,1.7136,1.7094,1.7094,1.7094,0,1.6622,1.6671,1.6699,1.6732,1.6756,1.678,1.681,1.6836,1.6888,1.6904,1.6904,1.698,1.7009,1.7058,1.7065,1.7082,1.7092,1.7086,1.7117,1.7119,1.7122,1.7132,1.7136,1.7093,1.7093,1.7093,1.7093,0,1.6662,1.6695,1.6714,1.6763,1.6789,1.6821,1.6855,1.6877,1.6894,1.6918,1.6961,1.6998,1.704,1.7053,1.707,1.7105,1.7104,1.711,1.7111,1.7124,1.7134,1.7138,1.7092,1.7092,1.7093,1.7093,0,0,1.6664,1.6729,1.6736,1.6759,1.6807,1.6834,1.6867,1.6909,1.6929,1.6963,1.6993,1.7043,1.7049,1.7074,1.7094,1.7114,1.7135,1.7118,1.712,1.7121,1.7177,1.7173,1.7177,1.7144,1.7145,1.7145,1.7174,0,1.6686,1.6746,1.6773,1.6821,1.6853,1.6876,1.6905,1.6939,1.6963,1.6994,1.7021,1.7057,1.7061,1.7077,1.7098,1.7128,1.7147,1.7126,1.7172,1.7174,1.7162,1.7183,1.7178,1.7203,1.7178,1.7179,1.718,0,1.672,1.6755,1.6806,1.6852,1.6866,1.6892,1.6933,1.6962,1.7001,1.7017,1.7046,1.7065,1.7102,1.7099,1.7151,1.7136,1.7156,1.7174,1.7176,1.7182,1.7178,1.719,1.7212,1.7216,1.7186,1.7186,1.7185,0,1.6718,1.6778,1.6816,1.6835,1.6889,1.6907,1.693,1.6969,1.6992,1.7028,1.7044,1.7084,1.7106,1.7137,1.7167,1.7162,1.7216,1.7215,1.7231,1.723,1.7242,1.7241,1.7269,1.7254,1.7254,1.7254,1.7253,0,1.674,1.6771,1.6816,1.684,1.6875,1.6906,1.6941,1.6966,1.7,1.703,1.7052,1.708,1.7117,1.7149,1.7173,1.7213,1.7222,1.7237,1.7243,1.7235,1.7234,1.725,1.7249,1.7255,1.7254,1.7254,1.7254,0,1.6744,1.6776,1.6819,1.6867,1.688,1.6904,1.6945,1.697,1.6995,1.7032,1.7043,1.7083,1.7123,1.7155,1.7207,1.7223,1.7265,1.7271,1.7251,1.7255,1.7269,1.7268,1.7309,1.7316,1.7295,1.7295,1.7296,0,1.6757,1.6781,1.6831,1.6853,1.6876,1.691,1.6934,1.6966,1.6991,1.7037,1.7056,1.7097,1.7132,1.7194,1.7228,1.7268,1.7277,1.7288,1.7283,1.7275,1.7278,1.7277,1.728,1.7289,1.7289,1.7289,1.7289,0,1.6776,1.6791,1.6825,1.6865,1.6893,1.6926,1.696,1.6976,1.7014,1.7041,1.7082,1.7108,1.7161,1.7202,1.7246,1.7271,1.7287,1.7291,1.7297,1.7289,1.7277,1.7285,1.7254,1.729,1.729,1.7289,1.7289,1.7289,1.6786,1.6808,1.6848,1.6885,1.6914,1.6945,1.6971,1.6999,1.7033,1.7079,1.7096,1.7138,1.7177,1.7237,1.7262,1.7296,1.7298,1.7306,1.7309,1.731,1.731,1.7271,1.7304,1.7304,1.7304,1.7304,1.7304,0,1.6807,1.6833,1.6868,1.6914,1.6944,1.6955,1.6994,1.7018,1.7054,1.7089,1.7123,1.717,1.721,1.7248,1.729,1.7309,1.7318,1.732,1.7319,1.7325,1.7305,1.7296,1.7312,1.7312,1.7312,1.7312,1.7312,1.7312,1.6822,1.6861,1.6881,1.6935,1.6962,1.7002,1.7023,1.7053,1.7081,1.7132,1.7165,1.7189,1.7226,1.7271,1.7308,1.7319,1.7333,1.7333,1.7345,1.7327,1.7326,1.7325,1.7316,1.7336,1.7336,1.7362,1.7362,1.7362]},{"header":{"parameterUnit":"m.s-1","parameterCategory":1,"la1":30.2991,"la2":30.254,"lo1":-89.0895,"lo2":-89.0444,"dy":0.0017,"dx":0.0017,"nx":28,"ny":28,"refTime":"2024-07-16T03:00:00:Z","depth":0,"parameterNumber":3,"parameterNumberName":"V-component_of_WINDS"},"data":[0,0,0,0,0,0,0,0,0,0,0,0,0,0,0,0,0,0,0,0,0,0,0,0,0,0,0,0,0,0,0,0,0,0,0,0,0,0,0,0,0,0,0,0,0,0,0,0,0,0,0,0,0,0,0,0,0,0,-0.1416,-0.1417,0,-0.1469,-0.147,-0.1471,-0.1495,-0.1495,-0.1495,-0.1495,-0.155,-0.1552,-0.1553,0,0,0,0,0,0,0,0,0,0,0,0,0,-0.1337,-0.1338,-0.1416,-0.1417,-0.1417,-0.1469,-0.147,-0.1471,-0.1495,-0.1495,-0.1495,-0.1495,-0.155,-0.1551,-0.1553,0,0,0,0,0,0,0,0,0,0,0,0,0,-0.1379,-0.1338,-0.1416,-0.1436,-0.1438,-0.1469,-0.147,-0.1471,-0.1495,-0.1495,-0.1495,-0.1494,-0.1549,-0.1551,-0.1553,-0.1569,0,0,-0.156,-0.1561,0,0,0,0,0,0,0,0,-0.1376,-0.1382,-0.1432,-0.1434,-0.1437,-0.1475,-0.1462,-0.1504,-0.1495,-0.1473,-0.1495,-0.1494,-0.1525,-0.153,-0.154,-0.1572,-0.1574,-0.1561,-0.1562,-0.1563,-0.1564,0,0,0,0,0,0,0,-0.1373,-0.1379,-0.1437,-0.1433,-0.1436,-0.1442,-0.1448,-0.147,-0.1499,-0.1475,-0.1477,-0.1483,-0.1527,-0.1537,-0.1541,-0.1575,-0.1561,-0.1563,-0.1564,-0.1565,-0.1625,-0.1625,0,0,0,0,0,0,-0.1367,-0.1377,-0.1436,-0.1439,-0.1406,-0.1444,-0.145,-0.1463,-0.1499,-0.1504,-0.1483,-0.1484,-0.1534,-0.1539,-0.1543,-0.1565,-0.1563,-0.1565,-0.1567,-0.1625,-0.1625,-0.1625,0,0,0,0,0,0,-0.1365,-0.1372,-0.1433,-0.1408,-0.1417,-0.1445,-0.1459,-0.1464,-0.1475,-0.1505,-0.151,-0.1489,-0.1534,-0.154,-0.1563,-0.1568,-0.1566,-0.1568,-0.1625,-0.1625,-0.1625,-0.1609,0,0,0,0,0,0,-0.1363,-0.1371,-0.1377,-0.1408,-0.1418,-0.1452,-0.146,-0.1465,-0.1479,-0.1481,-0.1512,-0.1517,-0.1534,-0.156,-0.1565,-0.1571,-0.157,-0.1624,-0.1625,-0.1625,-0.1609,-0.1609,-0.1608,0,0,0,0,0,-0.136,-0.137,-0.1377,-0.1384,-0.1426,-0.1452,-0.1457,-0.1477,-0.1479,-0.1486,-0.1505,-0.1516,-0.1566,-0.1562,-0.1568,-0.1575,-0.1624,-0.1625,-0.1625,-0.161,-0.1609,-0.1608,0,0,0,0,0,0,-0.1339,-0.1375,-0.1383,-0.1404,-0.1424,-0.1456,-0.1465,-0.1475,-0.1496,-0.1497,-0.1521,-0.1528,-0.1549,-0.1564,-0.1558,-0.1593,-0.1596,-0.1598,-0.1582,-0.1582,-0.1581,-0.1577,-0.1572,0,0,0,0,0,-0.1337,-0.1354,-0.1385,-0.14,-0.141,-0.1436,-0.1448,-0.1461,-0.1484,-0.1493,-0.1514,-0.1536,-0.1557,-0.157,-0.1591,-0.1612,-0.162,-0.1619,-0.1619,-0.1618,-0.162,-0.1633,-0.1634,-0.1627,-0.1627,-0.1627,0,0,-0.1332,-0.1354,-0.1364,-0.1397,-0.1414,-0.1433,-0.1443,-0.1462,-0.1476,-0.1496,-0.1519,-0.1535,-0.1561,-0.1584,-0.1595,-0.1597,-0.1624,-0.1619,-0.1618,-0.162,-0.1634,-0.1635,-0.1635,-0.1627,-0.1627,-0.1627,0,0,-0.1334,-0.1352,-0.1367,-0.1385,-0.1412,-0.1429,-0.1432,-0.1462,-0.1474,-0.1498,-0.1513,-0.1531,-0.1566,-0.1584,-0.1598,-0.1608,-0.1619,-0.1614,-0.1612,-0.1625,-0.1625,-0.1626,-0.163,-0.1631,-0.1616,-0.1616,-0.1615,0,-0.1325,-0.1353,-0.1374,-0.1392,-0.1407,-0.1425,-0.1442,-0.1458,-0.149,-0.15,-0.1502,-0.1548,-0.1567,-0.1594,-0.1597,-0.1607,-0.1613,-0.1611,-0.1623,-0.1624,-0.1625,-0.163,-0.1631,-0.1615,-0.1615,-0.1615,-0.1615,0,-0.1342,-0.1361,-0.137,-0.1401,-0.1417,-0.1434,-0.1458,-0.1471,-0.1483,-0.15,-0.1525,-0.1548,-0.1575,-0.1582,-0.1594,-0.1612,-0.1613,-0.1619,-0.1623,-0.1625,-0.163,-0.1631,-0.1614,-0.1614,-0.1614,-0.1614,0,0,-0.1331,-0.1374,-0.1377,-0.1392,-0.1423,-0.1439,-0.1457,-0.1483,-0.1495,-0.1517,-0.1533,-0.1563,-0.157,-0.1586,-0.16,-0.1611,-0.1619,-0.1616,-0.1617,-0.1617,-0.1641,-0.1636,-0.1638,-0.1626,-0.1626,-0.1627,-0.1639,0,-0.1338,-0.1371,-0.1391,-0.1417,-0.1435,-0.1454,-0.1471,-0.1492,-0.1509,-0.1527,-0.1546,-0.1567,-0.1573,-0.1583,-0.1595,-0.1615,-0.1624,-0.1615,-0.1643,-0.1643,-0.1636,-0.164,-0.1635,-0.1645,-0.1641,-0.1641,-0.1641,0,-0.135,-0.1371,-0.1399,-0.143,-0.1438,-0.1452,-0.1478,-0.1496,-0.1521,-0.1532,-0.1551,-0.1565,-0.1586,-0.1588,-0.1619,-0.1612,-0.1625,-0.1636,-0.1637,-0.1641,-0.1643,-0.1645,-0.1649,-0.1651,-0.1644,-0.1644,-0.1644,0,-0.134,-0.1376,-0.1398,-0.141,-0.1446,-0.1456,-0.1471,-0.1496,-0.1511,-0.1534,-0.1544,-0.1569,-0.1582,-0.1602,-0.1623,-0.1622,-0.1652,-0.1655,-0.1662,-0.1662,-0.1668,-0.1667,-0.1675,-0.1675,-0.1675,-0.1675,-0.1675,0,-0.1346,-0.1362,-0.1394,-0.1408,-0.1427,-0.145,-0.1469,-0.1486,-0.1508,-0.1526,-0.1543,-0.156,-0.1587,-0.1606,-0.1623,-0.1646,-0.1652,-0.1663,-0.1667,-0.1661,-0.166,-0.167,-0.1671,-0.1675,-0.1675,-0.1675,-0.1675,0,-0.1338,-0.1361,-0.1386,-0.1418,-0.1426,-0.1439,-0.1467,-0.1481,-0.1499,-0.1521,-0.1528,-0.1556,-0.158,-0.1603,-0.1636,-0.1647,-0.1671,-0.1676,-0.1662,-0.1665,-0.1671,-0.167,-0.1686,-0.169,-0.1686,-0.1686,-0.1686,0,-0.1341,-0.1354,-0.1388,-0.1401,-0.1416,-0.1436,-0.1452,-0.1475,-0.149,-0.1521,-0.1531,-0.1557,-0.1579,-0.1617,-0.1641,-0.1666,-0.1673,-0.1676,-0.1677,-0.1671,-0.1674,-0.1673,-0.1675,-0.1676,-0.1676,-0.1676,-0.1676,0,-0.1343,-0.1353,-0.1374,-0.14,-0.1417,-0.1438,-0.146,-0.147,-0.1497,-0.1514,-0.1539,-0.1556,-0.159,-0.1615,-0.1644,-0.166,-0.1673,-0.1676,-0.1679,-0.1673,-0.1665,-0.1671,-0.1662,-0.1675,-0.1675,-0.1675,-0.1675,-0.1675,-0.1341,-0.1354,-0.138,-0.1403,-0.1422,-0.1442,-0.1457,-0.1477,-0.1499,-0.1528,-0.154,-0.1566,-0.1592,-0.1631,-0.1648,-0.1669,-0.1672,-0.1676,-0.1678,-0.1679,-0.1678,-0.1661,-0.1674,-0.1674,-0.1674,-0.1674,-0.1675,0,-0.1344,-0.1362,-0.1383,-0.1413,-0.1432,-0.1442,-0.1467,-0.1482,-0.1505,-0.1528,-0.1549,-0.1579,-0.1604,-0.163,-0.1657,-0.1669,-0.1675,-0.1675,-0.1675,-0.1679,-0.1673,-0.1668,-0.1669,-0.1669,-0.1669,-0.1669,-0.1669,-0.1669,-0.1348,-0.1371,-0.1385,-0.1418,-0.1436,-0.1461,-0.1475,-0.1494,-0.1513,-0.1545,-0.1566,-0.1583,-0.1608,-0.1637,-0.1661,-0.1668,-0.1677,-0.1676,-0.1684,-0.1679,-0.1679,-0.1679,-0.1675,-0.1677,-0.1677,-0.1688,-0.1688,-0.1688]}]]